Edgartown, MA

8:43 PM EST on December 05, 2016 (GMT -0500)
Martha's Vineyard

Weather History for KMVY - September, 2015

Change the Weather History Date:

Saturday, September 12, 2015

  Actual Average Record
Temperature  
Mean Temperature 62 °F -  
Max Temperature 75 °F 73 °F 86 °F (1983)
Min Temperature 50 °F 56 °F 36 °F (2006)
Degree Days  
Heating Degree Days 2    
Growing Degree Days 12 (Base 50)    
Moisture  
Dew Point 57 °F    
Average Humidity 83    
Maximum Humidity 97    
Minimum Humidity 64    
Precipitation  
Precipitation 0.01 in - - ()
Sea Level Pressure  
Sea Level Pressure 29.84 in    
Wind  
Wind Speed 3 mph (SE)    
Max Wind Speed 13 mph    
Max Gust Speed -    
Visibility 9 miles    
Events Rain    
Averages and records for this station are not official NWS values.
T = Trace of Precipitation, MM = Missing Value Source: NWS Daily Summary

Daily Weather History Graph

Daily Weather History Graph

Search for Another Location

Airport or City:

Trip Planner

Search our weather history database for the weather conditions in past years. The results will help you decide how hot, cold, wet, or windy it might be!

Date:

Astronomy

Sep. 12, 2015 Rise Set
Actual Time 6:19 AM EDT 6:57 PM EDT
Civil Twilight 5:51 AM EDT 7:25 PM EDT
Nautical Twilight 5:18 AM EDT 7:58 PM EDT
Astronomical Twilight 4:44 AM EDT 8:31 PM EDT
Moon 5:39 AM EDT (9/12) 6:37 PM EDT (9/12)
Length of Visible Light 13h 33m
Length of Day
12h 37m
Waning Crescent, 0% of the Moon is Illuminated
Sep 12
Waning Crescent
Sep 13
New
Sep 21
First Quarter
Sep 27
Full
Oct 4
Last Quarter

Hourly Weather History & Observations

Time (EDT) Temp. Dew Point Humidity Pressure Visibility Wind Dir Wind Speed Gust Speed Precip Events Conditions
12:26 AM 55.9 °F 55.0 °F 97% 29.82 in 1.8 mi Calm Calm - N/A   Clear
12:37 AM 55.9 °F 54.0 °F 93% 29.82 in 5.0 mi Calm Calm - N/A   Clear
12:53 AM 55.0 °F 54.0 °F 96% 29.83 in 10.0 mi Calm Calm - N/A   Clear
1:53 AM 54.0 °F 52.0 °F 93% 29.83 in 10.0 mi Calm Calm - N/A   Clear
2:53 AM 52.0 °F 51.1 °F 97% 29.83 in 10.0 mi WNW 3.5 mph - N/A   Clear
3:53 AM 51.1 °F 50.0 °F 96% 29.83 in 6.0 mi Calm Calm - N/A   Clear
4:45 AM 50.0 °F 48.0 °F 93% 29.83 in 1.8 mi Calm Calm - N/A   Clear
4:51 AM 50.0 °F 48.2 °F 94% 29.83 in 3.0 mi Calm Calm - N/A   Clear
4:53 AM 50.0 °F 48.9 °F 96% 29.83 in 4.0 mi Calm Calm - N/A   Clear
5:15 AM 52.0 °F 50.0 °F 93% 29.84 in 10.0 mi Calm Calm - N/A   Mostly Cloudy
5:53 AM 53.1 °F 51.1 °F 93% 29.85 in 10.0 mi Calm Calm - N/A   Mostly Cloudy
6:03 AM 52.0 °F 51.1 °F 97% 29.85 in 10.0 mi Calm Calm - N/A   Partly Cloudy
6:38 AM 53.1 °F 51.1 °F 93% 29.86 in 10.0 mi Calm Calm - N/A   Mostly Cloudy
6:53 AM 55.0 °F 53.1 °F 93% 29.86 in 10.0 mi Calm Calm - N/A   Scattered Clouds
7:53 AM 64.0 °F 62.1 °F 93% 29.87 in 10.0 mi Calm Calm - N/A   Scattered Clouds
8:53 AM 70.0 °F 61.0 °F 73% 29.87 in 10.0 mi North 4.6 mph - N/A   Scattered Clouds
9:53 AM 72.0 °F 62.1 °F 71% 29.88 in 10.0 mi NW 5.8 mph - N/A   Scattered Clouds
10:00 AM 70.0 °F 61.0 °F 73% 29.88 in 10.0 mi NNW 4.6 mph - N/A   Mostly Cloudy
10:13 AM 72.0 °F 61.0 °F 68% 29.88 in 10.0 mi NW 3.5 mph - N/A   Scattered Clouds
10:53 AM 75.0 °F 62.1 °F 64% 29.88 in 10.0 mi NNW 4.6 mph - N/A   Scattered Clouds
11:53 AM 73.0 °F 63.0 °F 71% 29.88 in 10.0 mi South 6.9 mph - N/A   Overcast
12:53 PM 72.0 °F 62.1 °F 71% 29.86 in 10.0 mi Variable 5.8 mph - N/A   Overcast
1:28 PM 72.0 °F 62.1 °F 71% 29.85 in 10.0 mi SE 4.6 mph - N/A   Mostly Cloudy
1:53 PM 73.0 °F 62.1 °F 68% 29.85 in 10.0 mi South 4.6 mph - N/A   Overcast
2:53 PM 73.9 °F 63.0 °F 68% 29.84 in 10.0 mi South 9.2 mph - N/A   Overcast
3:53 PM 73.0 °F 61.0 °F 66% 29.84 in 10.0 mi SSE 10.4 mph - N/A   Clear
4:53 PM 69.1 °F 60.1 °F 73% 29.82 in 10.0 mi SE 12.7 mph - N/A   Clear
5:53 PM 66.9 °F 61.0 °F 81% 29.82 in 10.0 mi SE 9.2 mph - N/A   Clear
6:53 PM 66.0 °F 60.1 °F 81% 29.82 in 10.0 mi SSE 10.4 mph - N/A   Scattered Clouds
7:53 PM 64.9 °F 59.0 °F 81% 29.82 in 10.0 mi SE 9.2 mph - N/A   Scattered Clouds
8:53 PM 64.9 °F 57.9 °F 78% 29.82 in 10.0 mi SE 10.4 mph - N/A   Clear
9:53 PM 64.9 °F 57.9 °F 78% 29.81 in 10.0 mi ESE 9.2 mph - N/A   Mostly Cloudy
10:53 PM 64.9 °F 60.1 °F 84% 29.79 in 10.0 mi East 6.9 mph - N/A   Mostly Cloudy
11:53 PM 64.9 °F 62.1 °F 90% 29.78 in 10.0 mi ESE 6.9 mph - 0.01 in Rain Light Rain